This demonstration page uses our WeatherBlox Daily Observations layout. Learn more.

Left ArrowRight Arrow

Hourly Observations for May 27, 2020

Temp ( °F °C ) Dew Point ( °F °C ) Humidity (%) Winds ( mph kmh ) Pressure ( in mb ) Visibility ( mi km ) Precip ( " mm )
12:53 am 00:53 Clear 69 20.6 37 2.8 31 31 S 8 13 29.79 1009 10 16 0.00 0.00
1:53 am 01:53 Clear 67 19.4 39 3.9 36 36 SSE 8 13 29.78 1008 10 16 0.00 0.00
2:53 am 02:53 Clear 65 18.3 39 3.9 39 39 SE 9 15 29.76 1008 10 16 0.00 0.00
3:53 am 03:53 Clear 64 17.8 39 3.9 40 40 ESE 9 15 29.76 1008 10 16 0.00 0.00
4:53 am 04:53 Clear 63 17.2 42 5.6 47 47 SE 9 15 29.75 1007 10 16 0.00 0.00
5:53 am 05:53 Clear 64 17.8 45 7.2 50 50 SE 10 17 29.75 1007 10 16 0.00 0.00
6:53 am 06:53 Sunny 63 17.2 47 8.3 56 56 SE 8 13 29.77 1008 10 16 0.00 0.00
7:53 am 07:53 Sunny 65 18.3 49 9.4 56 56 ESE 8 13 29.77 1008 10 16 0.00 0.00
8:53 am 08:53 Sunny 70 21.1 51 10.6 51 51 ESE 9 15 29.78 1008 10 16 0.00 0.00
9:53 am 09:53 Sunny 77 25 51 10.6 40 40 SE 10 17 29.78 1009 10 16 0.00 0.00
10:53 am 10:53 Sunny 83 28.3 46 7.8 27 27 VRB 3 6 29.77 1008 10 16 0.00 0.00
11:53 am 11:53 Sunny 86 30 43 6.1 22 22 WNW 6 9 29.76 1008 10 16 0.00 0.00
12:53 pm 12:53 Sunny 90 32.2 42 5.6 19 19 Calm 29.75 1007 10 16 0.00 0.00
1:53 pm 13:53 Sunny 95 35 40 4.4 15 15 ENE 8 13 29.73 1007 10 16 0.00 0.00
2:53 pm 14:53 Sunny 95 35 36 2.2 13 13 undefined N/A 29.71 1006 10 16 0.00 0.00
3:53 pm 15:53 Sunny 96 35.6 37 2.8 13 13 VRB 5 7 29.69 1005 10 16 0.00 0.00
4:53 pm 16:53 Sunny 98 36.7 36 2.2 11 11 NE 8 13 29.67 1005 10 16 0.00 0.00
5:53 pm 17:53 Sunny 97 36.1 37 2.8 12 12 NE 12 19 29.66 1004 10 16 0.00 0.00
6:53 pm 18:53 Sunny 96 35.6 36 2.2 12 12 N 9 15 29.66 1004 10 16 0.00 0.00
7:53 pm 19:53 Sunny 94 34.4 37 2.8 14 14 ENE 17 28 29.67 1005 10 16 0.00 0.00
8:53 pm 20:53 Clear 89 31.7 37 2.8 16 16 ENE 12 19 29.70 1006 10 16 0.00 0.00
9:53 pm 21:53 Clear 82 27.8 38 3.3 21 21 ENE 7 11 29.72 1006 10 16 0.00 0.00
10:53 pm 22:53 Clear 82 27.8 40 4.4 22 22 ENE 13 20 29.74 1007 10 16 0.00 0.00
11:53 pm 23:53 Clear 79 26.1 41 5 26 26 ESE 12 19 29.74 1007 10 16 0.00 0.00

Powered by AerisWeather